Wetterdaten: Sonntag, 29.03.2015
Datum Zeit Auen-Temp. Temp gefhlt Luftfeuchte Luftdruck Regen Wind Richtung Richtung Taupunkt Windben
29.03.2015 00:00 5,3 C 5,1 C 79 % 1017,1 hPa 0,0 mm 2,4 km/h (1 Bft) W-SW 247 2,0 C 5,0 km/h (1 Bft)
29.03.2015 00:05 5,4 C 5,0 C 79 % 1016,7 hPa 0,0 mm 3,7 km/h (1 Bft) S 180 2,1 C 5,1 km/h (1 Bft)
29.03.2015 00:10 5,7 C 5,0 C 79 % 1016,7 hPa 0,0 mm 5,6 km/h (1 Bft) SW 225 2,3 C 6,4 km/h (2 Bft)
29.03.2015 00:15 5,7 C 5,1 C 79 % 1016,7 hPa 0,0 mm 5,5 km/h (1 Bft) SW 225 2,3 C 9,7 km/h (2 Bft)
29.03.2015 00:20 5,8 C 5,3 C 78 % 1016,7 hPa 0,0 mm 5,0 km/h (1 Bft) SW 225 2,3 C 5,3 km/h (1 Bft)
29.03.2015 00:25 5,8 C 5,4 C 78 % 1016,6 hPa 0,0 mm 4,7 km/h (1 Bft) SW 225 2,3 C 2,9 km/h (1 Bft)
29.03.2015 00:30 5,8 C 5,4 C 78 % 1016,6 hPa 0,0 mm 4,2 km/h (1 Bft) SW 225 2,3 C 3,7 km/h (1 Bft)
29.03.2015 00:35 5,7 C 5,5 C 78 % 1016,6 hPa 0,0 mm 3,7 km/h (1 Bft) SW 225 2,2 C 4,0 km/h (1 Bft)
29.03.2015 00:40 5,8 C 5,6 C 77 % 1016,6 hPa 0,0 mm 3,5 km/h (1 Bft) W-SW 247 2,1 C 5,3 km/h (1 Bft)
29.03.2015 00:45 5,7 C 5,5 C 77 % 1016,4 hPa 0,0 mm 3,4 km/h (1 Bft) W-SW 247 2,0 C 3,2 km/h (1 Bft)
29.03.2015 00:50 5,8 C 5,6 C 77 % 1016,4 hPa 0,0 mm 3,5 km/h (1 Bft) W 270 2,1 C 4,3 km/h (1 Bft)
29.03.2015 00:55 5,8 C 5,6 C 77 % 1016,4 hPa 0,0 mm 3,9 km/h (1 Bft) W-NW 292 2,1 C 7,6 km/h (2 Bft)
29.03.2015 01:00 5,8 C 5,6 C 77 % 1016,4 hPa 0,0 mm 3,7 km/h (1 Bft) W-SW 247 2,1 C 6,1 km/h (2 Bft)
29.03.2015 01:05 5,9 C 5,7 C 77 % 1016,6 hPa 0,0 mm 3,5 km/h (1 Bft) W-SW 247 2,2 C 3,5 km/h (1 Bft)
29.03.2015 01:10 6,0 C 5,7 C 76 % 1016,6 hPa 0,0 mm 4,0 km/h (1 Bft) SW 225 2,1 C 3,4 km/h (1 Bft)
29.03.2015 01:15 6,1 C 5,8 C 76 % 1016,6 hPa 0,0 mm 4,5 km/h (1 Bft) W-SW 247 2,2 C 12,2 km/h (2 Bft)
29.03.2015 01:20 6,1 C 5,8 C 76 % 1016,6 hPa 0,0 mm 4,5 km/h (1 Bft) W-SW 247 2,2 C 8,2 km/h (2 Bft)
29.03.2015 01:25 6,1 C 5,8 C 76 % 1016,3 hPa 0,0 mm 4,7 km/h (1 Bft) NW 315 2,2 C 4,8 km/h (1 Bft)
29.03.2015 01:30 6,0 C 5,7 C 76 % 1016,3 hPa 0,0 mm 4,2 km/h (1 Bft) SW 225 2,1 C 5,3 km/h (1 Bft)
29.03.2015 01:35 5,8 C 5,5 C 78 % 1016,3 hPa 0,0 mm 3,9 km/h (1 Bft) W-SW 247 2,3 C 4,7 km/h (1 Bft)
29.03.2015 01:40 5,8 C 5,4 C 78 % 1016,3 hPa 0,0 mm 4,0 km/h (1 Bft) W-SW 247 2,3 C 5,0 km/h (1 Bft)
29.03.2015 01:45 5,8 C 5,4 C 79 % 1016,5 hPa 0,0 mm 4,0 km/h (1 Bft) SW 225 2,4 C 5,1 km/h (1 Bft)
29.03.2015 01:50 5,8 C 5,4 C 79 % 1016,5 hPa 0,7 mm 4,0 km/h (1 Bft) W-SW 247 2,4 C 5,1 km/h (1 Bft)
29.03.2015 01:55 5,8 C 5,4 C 79 % 1016,5 hPa 0,0 mm 3,9 km/h (1 Bft) S 180 2,4 C 4,8 km/h (1 Bft)
29.03.2015 03:00 5,8 C 5,4 C 79 % 1016,5 hPa 0,0 mm 3,9 km/h (1 Bft) W-SW 247 2,4 C 5,0 km/h (1 Bft)
29.03.2015 03:05 5,8 C 5,5 C 80 % 1016,4 hPa 0,0 mm 3,9 km/h (1 Bft) W-SW 247 2,6 C 4,5 km/h (1 Bft)
29.03.2015 03:10 5,8 C 5,4 C 80 % 1016,4 hPa 0,0 mm 4,2 km/h (1 Bft) SW 225 2,6 C 6,6 km/h (2 Bft)
29.03.2015 03:15 5,9 C 5,5 C 81 % 1016,4 hPa 0,0 mm 4,3 km/h (1 Bft) SW 225 2,9 C 12,9 km/h (3 Bft)
29.03.2015 03:20 5,9 C 5,4 C 81 % 1016,4 hPa 0,0 mm 4,5 km/h (1 Bft) W-SW 247 2,9 C 4,0 km/h (1 Bft)
29.03.2015 03:25 6,0 C 5,5 C 80 % 1016,2 hPa 0,0 mm 4,8 km/h (1 Bft) SW 225 2,8 C 6,3 km/h (2 Bft)
29.03.2015 03:30 6,0 C 5,6 C 80 % 1016,2 hPa 0,0 mm 4,7 km/h (1 Bft) S-SW 202 2,8 C 5,1 km/h (1 Bft)
29.03.2015 03:35 6,0 C 5,6 C 80 % 1016,2 hPa 0,0 mm 4,3 km/h (1 Bft) SW 225 2,8 C 7,1 km/h (2 Bft)
29.03.2015 03:40 6,0 C 5,6 C 80 % 1016,2 hPa 0,0 mm 4,5 km/h (1 Bft) W 270 2,8 C 6,4 km/h (2 Bft)
29.03.2015 03:45 6,0 C 5,6 C 80 % 1016,1 hPa 0,0 mm 4,5 km/h (1 Bft) W 270 2,8 C 3,1 km/h (1 Bft)
29.03.2015 03:50 6,1 C 5,6 C 80 % 1016,1 hPa 0,0 mm 4,8 km/h (1 Bft) W-SW 247 2,9 C 5,3 km/h (1 Bft)
29.03.2015 03:55 6,2 C 5,7 C 80 % 1016,1 hPa 0,0 mm 5,3 km/h (1 Bft) W 270 3,0 C 10,9 km/h (2 Bft)
29.03.2015 04:00 6,1 C 5,7 C 80 % 1016,1 hPa 0,0 mm 5,0 km/h (1 Bft) W-SW 247 2,9 C 3,4 km/h (1 Bft)
29.03.2015 04:05 6,2 C 5,8 C 80 % 1015,9 hPa 0,0 mm 5,0 km/h (1 Bft) W 270 3,0 C 4,7 km/h (1 Bft)
29.03.2015 04:10 6,2 C 5,7 C 80 % 1015,9 hPa 0,0 mm 5,3 km/h (1 Bft) SW 225 3,0 C 5,1 km/h (1 Bft)
29.03.2015 04:15 6,4 C 5,8 C 80 % 1015,9 hPa 0,0 mm 6,1 km/h (2 Bft) W-SW 247 3,2 C 7,1 km/h (2 Bft)
29.03.2015 04:20 6,4 C 5,7 C 80 % 1015,9 hPa 0,0 mm 6,8 km/h (2 Bft) W 270 3,2 C 4,8 km/h (1 Bft)
29.03.2015 04:25 6,4 C 5,7 C 80 % 1015,9 hPa 0,0 mm 6,4 km/h (2 Bft) SW 225 3,2 C 13,7 km/h (3 Bft)
29.03.2015 04:30 6,3 C 5,7 C 80 % 1015,9 hPa 0,0 mm 6,1 km/h (2 Bft) W-SW 247 3,1 C 10,8 km/h (2 Bft)
29.03.2015 04:35 6,2 C 5,5 C 80 % 1015,9 hPa 0,0 mm 6,4 km/h (2 Bft) W 270 3,0 C 10,1 km/h (2 Bft)
29.03.2015 04:40 6,1 C 5,5 C 80 % 1015,9 hPa 0,0 mm 6,0 km/h (2 Bft) S 180 2,9 C 5,6 km/h (1 Bft)
29.03.2015 04:45 6,0 C 5,5 C 80 % 1015,8 hPa 0,0 mm 4,8 km/h (1 Bft) W 270 2,8 C 5,8 km/h (2 Bft)
29.03.2015 04:50 5,9 C 5,4 C 81 % 1015,8 hPa 0,0 mm 4,5 km/h (1 Bft) W-SW 247 2,9 C 6,1 km/h (2 Bft)
29.03.2015 04:55 6,1 C 5,5 C 80 % 1015,8 hPa 0,0 mm 5,0 km/h (1 Bft) W-SW 247 2,9 C 6,1 km/h (2 Bft)
29.03.2015 05:00 6,1 C 5,6 C 80 % 1015,8 hPa 0,0 mm 4,7 km/h (1 Bft) W-SW 247 2,9 C 3,7 km/h (1 Bft)
29.03.2015 05:05 6,2 C 5,7 C 80 % 1015,6 hPa 0,0 mm 4,5 km/h (1 Bft) W-SW 247 3,0 C 4,3 km/h (1 Bft)
29.03.2015 05:10 6,1 C 5,7 C 80 % 1015,6 hPa 0,0 mm 4,7 km/h (1 Bft) W-SW 247 2,9 C 4,2 km/h (1 Bft)
29.03.2015 05:15 6,1 C 5,7 C 80 % 1015,6 hPa 0,0 mm 4,0 km/h (1 Bft) W-SW 247 2,9 C 6,3 km/h (2 Bft)
29.03.2015 05:20 6,0 C 5,6 C 80 % 1015,6 hPa 0,0 mm 4,0 km/h (1 Bft) W-SW 247 2,8 C 4,8 km/h (1 Bft)
29.03.2015 05:25 5,9 C 5,5 C 81 % 1015,2 hPa 0,0 mm 4,5 km/h (1 Bft) W-SW 247 2,9 C 4,8 km/h (1 Bft)
29.03.2015 05:30 5,8 C 5,5 C 81 % 1015,2 hPa 0,0 mm 3,7 km/h (1 Bft) W-SW 247 2,8 C 4,8 km/h (1 Bft)
29.03.2015 05:35 5,6 C 5,5 C 81 % 1015,2 hPa 0,0 mm 3,2 km/h (1 Bft) W-SW 247 2,6 C 4,8 km/h (1 Bft)
29.03.2015 05:40 5,5 C 5,2 C 81 % 1015,2 hPa 0,0 mm 3,4 km/h (1 Bft) W-SW 247 2,5 C 5,5 km/h (1 Bft)
29.03.2015 05:45 5,3 C 5,0 C 80 % 1014,8 hPa 0,0 mm 3,4 km/h (1 Bft) W-SW 247 2,1 C 4,8 km/h (1 Bft)
29.03.2015 05:50 5,4 C 4,9 C 81 % 1014,8 hPa 0,0 mm 3,9 km/h (1 Bft) SW 225 2,4 C 5,1 km/h (1 Bft)
29.03.2015 05:55 5,4 C 4,9 C 80 % 1014,8 hPa 0,0 mm 4,0 km/h (1 Bft) W-NW 292 2,2 C 2,1 km/h (1 Bft)
29.03.2015 06:00 5,5 C 5,0 C 80 % 1014,8 hPa 0,0 mm 4,0 km/h (1 Bft) W-SW 247 2,3 C 4,8 km/h (1 Bft)
29.03.2015 06:05 5,5 C 5,1 C 79 % 1014,7 hPa 0,0 mm 3,9 km/h (1 Bft) W-SW 247 2,2 C 4,7 km/h (1 Bft)
29.03.2015 06:10 5,5 C 5,1 C 79 % 1014,7 hPa 0,0 mm 3,7 km/h (1 Bft) W-SW 247 2,2 C 4,0 km/h (1 Bft)
29.03.2015 06:15 5,5 C 5,2 C 79 % 1014,7 hPa 0,0 mm 3,2 km/h (1 Bft) W 270 2,2 C 3,9 km/h (1 Bft)
29.03.2015 06:20 5,7 C 5,4 C 79 % 1014,7 hPa 0,0 mm 3,4 km/h (1 Bft) SW 225 2,3 C 6,3 km/h (2 Bft)
29.03.2015 06:25 5,9 C 5,6 C 79 % 1014,6 hPa 0,0 mm 4,0 km/h (1 Bft) W-SW 247 2,5 C 2,3 km/h (1 Bft)
29.03.2015 06:30 6,0 C 5,7 C 78 % 1014,6 hPa 0,0 mm 4,0 km/h (1 Bft) W 270 2,5 C 5,8 km/h (2 Bft)
29.03.2015 06:35 6,2 C 6,0 C 77 % 1014,6 hPa 0,0 mm 3,5 km/h (1 Bft) W-SW 247 2,5 C 3,2 km/h (1 Bft)
29.03.2015 06:40 6,3 C 6,0 C 77 % 1014,6 hPa 0,0 mm 3,9 km/h (1 Bft) W 270 2,6 C 6,0 km/h (2 Bft)
29.03.2015 06:45 6,6 C 6,3 C 76 % 1014,3 hPa 0,0 mm 4,3 km/h (1 Bft) S 180 2,7 C 3,9 km/h (1 Bft)
29.03.2015 06:50 6,7 C 6,3 C 75 % 1014,3 hPa 0,0 mm 5,3 km/h (1 Bft) SW 225 2,6 C 8,4 km/h (2 Bft)
29.03.2015 06:55 6,8 C 6,4 C 73 % 1014,3 hPa 0,0 mm 6,1 km/h (2 Bft) W 270 2,3 C 7,7 km/h (2 Bft)
29.03.2015 07:00 6,8 C 6,4 C 73 % 1014,3 hPa 0,0 mm 6,1 km/h (2 Bft) SW 225 2,3 C 7,9 km/h (2 Bft)
29.03.2015 07:05 6,9 C 6,5 C 72 % 1014,5 hPa 0,0 mm 6,1 km/h (2 Bft) W-SW 247 2,2 C 6,9 km/h (2 Bft)
29.03.2015 07:10 6,9 C 6,5 C 72 % 1014,5 hPa 0,0 mm 6,6 km/h (2 Bft) W-SW 247 2,2 C 5,5 km/h (1 Bft)
29.03.2015 07:15 7,0 C 6,6 C 71 % 1014,5 hPa 0,0 mm 6,9 km/h (2 Bft) SW 225 2,1 C 7,6 km/h (2 Bft)
29.03.2015 07:20 7,1 C 6,6 C 70 % 1014,5 hPa 0,0 mm 7,2 km/h (2 Bft) S 180 2,0 C 10,5 km/h (2 Bft)
29.03.2015 07:25 7,1 C 6,6 C 70 % 1014,4 hPa 0,0 mm 7,4 km/h (2 Bft) W 270 2,0 C 14,3 km/h (3 Bft)
29.03.2015 07:30 7,2 C 6,8 C 70 % 1014,4 hPa 0,0 mm 6,4 km/h (2 Bft) W 270 2,1 C 3,1 km/h (1 Bft)
29.03.2015 07:35 7,2 C 6,9 C 70 % 1014,4 hPa 0,0 mm 6,0 km/h (2 Bft) W-SW 247 2,1 C 4,2 km/h (1 Bft)
29.03.2015 07:40 7,2 C 7,0 C 70 % 1014,4 hPa 0,0 mm 5,3 km/h (1 Bft) SW 225 2,1 C 7,6 km/h (2 Bft)
29.03.2015 07:45 7,3 C 7,1 C 70 % 1014,3 hPa 0,0 mm 5,3 km/h (1 Bft) W 270 2,2 C 6,8 km/h (2 Bft)
29.03.2015 07:50 7,4 C 7,1 C 70 % 1014,3 hPa 0,0 mm 6,1 km/h (2 Bft) SW 225 2,3 C 9,3 km/h (2 Bft)
29.03.2015 07:55 7,6 C 7,2 C 70 % 1014,3 hPa 0,0 mm 6,8 km/h (2 Bft) W-SW 247 2,5 C 7,1 km/h (2 Bft)
29.03.2015 08:00 7,6 C 7,2 C 70 % 1014,3 hPa 0,0 mm 6,8 km/h (2 Bft) SW 225 2,5 C 8,4 km/h (2 Bft)
29.03.2015 08:05 7,7 C 7,4 C 70 % 1014,2 hPa 0,0 mm 6,0 km/h (2 Bft) SW 225 2,6 C 6,9 km/h (2 Bft)
29.03.2015 08:10 7,8 C 7,6 C 70 % 1014,2 hPa 0,0 mm 5,5 km/h (1 Bft) SW 225 2,7 C 6,8 km/h (2 Bft)
29.03.2015 08:15 7,9 C 8,3 C 70 % 1014,2 hPa 0,0 mm 4,8 km/h (1 Bft) S 180 2,8 C 8,4 km/h (2 Bft)
29.03.2015 08:20 7,8 C 9,3 C 70 % 1014,2 hPa 0,0 mm 4,7 km/h (1 Bft) W-SW 247 2,7 C 3,9 km/h (1 Bft)
29.03.2015 08:25 7,9 C 8,8 C 69 % 1013,5 hPa 0,0 mm 5,6 km/h (1 Bft) W-SW 247 2,6 C 12,9 km/h (3 Bft)
29.03.2015 08:30 8,0 C 9,4 C 69 % 1013,5 hPa 0,0 mm 5,6 km/h (1 Bft) W-SW 247 2,7 C 5,6 km/h (1 Bft)
29.03.2015 08:35 8,1 C 8,8 C 68 % 1013,5 hPa 0,0 mm 7,4 km/h (2 Bft) SW 225 2,6 C 5,3 km/h (1 Bft)
29.03.2015 08:40 8,1 C 9,3 C 68 % 1013,5 hPa 0,0 mm 7,2 km/h (2 Bft) W-SW 247 2,6 C 8,4 km/h (2 Bft)
29.03.2015 08:45 8,5 C 11,8 C 68 % 1013,5 hPa 0,0 mm 6,4 km/h (2 Bft) SW 225 2,9 C 18,2 km/h (3 Bft)
29.03.2015 08:50 8,9 C 12,4 C 67 % 1013,5 hPa 0,0 mm 6,8 km/h (2 Bft) W-SW 247 3,1 C 5,6 km/h (1 Bft)
29.03.2015 08:55 9,2 C 11,7 C 66 % 1013,5 hPa 0,0 mm 6,8 km/h (2 Bft) W-NW 292 3,2 C 3,5 km/h (1 Bft)
29.03.2015 09:00 9,2 C 11,5 C 66 % 1013,5 hPa 0,0 mm 5,6 km/h (1 Bft) W-SW 247 3,2 C 5,8 km/h (2 Bft)
29.03.2015 09:05 9,5 C 11,5 C 65 % 1013,3 hPa 0,0 mm 5,8 km/h (2 Bft) W 270 3,3 C 10,6 km/h (2 Bft)
29.03.2015 09:10 9,6 C 11,2 C 64 % 1013,3 hPa 0,0 mm 6,4 km/h (2 Bft) W 270 3,1 C 6,3 km/h (2 Bft)
29.03.2015 09:15 9,7 C 11,1 C 64 % 1013,3 hPa 0,0 mm 6,3 km/h (2 Bft) W 270 3,2 C 5,3 km/h (1 Bft)
29.03.2015 09:20 9,8 C 11,7 C 64 % 1013,3 hPa 0,0 mm 5,0 km/h (1 Bft) W 270 3,3 C 11,6 km/h (2 Bft)
29.03.2015 09:25 9,9 C 11,2 C 64 % 1013,3 hPa 0,0 mm 6,3 km/h (2 Bft) W 270 3,4 C 24,9 km/h (4 Bft)
29.03.2015 09:30 9,9 C 10,9 C 63 % 1013,3 hPa 0,0 mm 7,9 km/h (2 Bft) W-SW 247 3,2 C 14,8 km/h (3 Bft)
29.03.2015 09:35 9,9 C 10,5 C 63 % 1013,3 hPa 0,0 mm 8,4 km/h (2 Bft) W-SW 247 3,2 C 6,1 km/h (2 Bft)
29.03.2015 09:40 9,9 C 10,3 C 62 % 1013,3 hPa 0,0 mm 8,2 km/h (2 Bft) N-NW 337 3,0 C 7,9 km/h (2 Bft)
29.03.2015 09:45 9,9 C 10,2 C 62 % 1012,9 hPa 0,0 mm 7,9 km/h (2 Bft) SW 225 3,0 C 15,4 km/h (3 Bft)
29.03.2015 09:50 10,0 C 10,1 C 62 % 1012,9 hPa 0,0 mm 7,7 km/h (2 Bft) W-NW 292 3,1 C 7,7 km/h (2 Bft)
29.03.2015 09:55 10,0 C 10,2 C 61 % 1012,9 hPa 0,0 mm 8,7 km/h (2 Bft) W-SW 247 2,8 C 12,9 km/h (3 Bft)
29.03.2015 10:00 10,0 C 10,1 C 62 % 1012,9 hPa 0,0 mm 8,9 km/h (2 Bft) W 270 3,1 C 14,3 km/h (3 Bft)
29.03.2015 10:05 9,9 C 10,2 C 62 % 1013,1 hPa 0,0 mm 9,0 km/h (2 Bft) W-NW 292 3,0 C 22,7 km/h (4 Bft)
29.03.2015 10:10 10,0 C 10,3 C 62 % 1013,1 hPa 0,0 mm 9,5 km/h (2 Bft) W 270 3,1 C 10,0 km/h (2 Bft)
29.03.2015 10:15 10,1 C 10,7 C 62 % 1013,1 hPa 0,0 mm 9,7 km/h (2 Bft) W 270 3,2 C 9,7 km/h (2 Bft)
29.03.2015 10:20 10,2 C 11,1 C 62 % 1013,1 hPa 0,0 mm 8,9 km/h (2 Bft) W-SW 247 3,3 C 9,7 km/h (2 Bft)
29.03.2015 10:25 10,3 C 10,9 C 61 % 1013,1 hPa 0,0 mm 8,9 km/h (2 Bft) W-SW 247 3,1 C 9,5 km/h (2 Bft)
29.03.2015 10:30 10,3 C 11,1 C 61 % 1013,1 hPa 0,0 mm 9,2 km/h (2 Bft) W-SW 247 3,1 C 15,0 km/h (3 Bft)
29.03.2015 10:35 10,2 C 10,7 C 61 % 1013,1 hPa 0,0 mm 10,5 km/h (2 Bft) W-NW 292 3,0 C 26,2 km/h (4 Bft)
29.03.2015 10:40 10,0 C 10,2 C 61 % 1013,1 hPa 0,0 mm 12,2 km/h (2 Bft) W 270 2,8 C 17,9 km/h (3 Bft)
29.03.2015 10:45 9,8 C 9,9 C 62 % 1013,3 hPa 0,0 mm 10,5 km/h (2 Bft) S 180 2,9 C 7,2 km/h (2 Bft)
29.03.2015 10:50 9,8 C 9,9 C 63 % 1013,3 hPa 0,0 mm 10,3 km/h (2 Bft) NW 315 3,1 C 7,9 km/h (2 Bft)
29.03.2015 10:55 9,6 C 9,9 C 64 % 1013,3 hPa 0,0 mm 12,2 km/h (2 Bft) W-SW 247 3,1 C 27,0 km/h (4 Bft)
29.03.2015 11:00 9,4 C 9,7 C 64 % 1013,3 hPa 0,0 mm 11,4 km/h (2 Bft) N-NW 337 2,9 C 8,7 km/h (2 Bft)
29.03.2015 11:05 9,4 C 9,8 C 65 % 1013,0 hPa 0,0 mm 11,6 km/h (2 Bft) W-NW 292 3,2 C 10,6 km/h (2 Bft)
29.03.2015 11:10 9,5 C 9,9 C 65 % 1013,0 hPa 0,0 mm 10,5 km/h (2 Bft) W-SW 247 3,3 C 6,9 km/h (2 Bft)
29.03.2015 11:15 9,4 C 9,9 C 65 % 1013,0 hPa 0,0 mm 10,6 km/h (2 Bft) W-SW 247 3,2 C 17,1 km/h (3 Bft)
29.03.2015 11:20 9,3 C 9,7 C 65 % 1013,0 hPa 0,0 mm 11,3 km/h (2 Bft) NW 315 3,1 C 13,2 km/h (3 Bft)
29.03.2015 11:25 9,3 C 9,6 C 66 % 1012,9 hPa 0,0 mm 12,2 km/h (2 Bft) W 270 3,3 C 29,1 km/h (5 Bft)
29.03.2015 11:30 9,4 C 9,9 C 66 % 1012,9 hPa 0,0 mm 11,7 km/h (2 Bft) W-NW 292 3,4 C 19,6 km/h (3 Bft)
29.03.2015 11:35 9,8 C 10,5 C 66 % 1012,9 hPa 0,0 mm 12,1 km/h (2 Bft) NW 315 3,8 C 28,5 km/h (4 Bft)
29.03.2015 11:40 9,9 C 11,1 C 65 % 1012,9 hPa 0,0 mm 11,7 km/h (2 Bft) W 270 3,6 C 9,8 km/h (2 Bft)
29.03.2015 11:45 10,3 C 11,9 C 65 % 1013,0 hPa 0,0 mm 11,9 km/h (2 Bft) NO 45 4,0 C 15,9 km/h (3 Bft)
29.03.2015 11:50 10,7 C 12,9 C 64 % 1013,0 hPa 0,0 mm 10,5 km/h (2 Bft) W-NW 292 4,2 C 14,6 km/h (3 Bft)
29.03.2015 11:55 11,4 C 14,8 C 63 % 1013,0 hPa 0,0 mm 9,2 km/h (2 Bft) W 270 4,6 C 27,7 km/h (4 Bft)
29.03.2015 12:00 11,2 C 15,7 C 62 % 1013,0 hPa 0,0 mm 8,9 km/h (2 Bft) NW 315 4,2 C 6,1 km/h (2 Bft)
29.03.2015 12:05 11,2 C 15,4 C 62 % 1013,2 hPa 0,0 mm 8,9 km/h (2 Bft) W-SW 247 4,2 C 7,6 km/h (2 Bft)
29.03.2015 12:10 11,4 C 15,1 C 61 % 1013,2 hPa 0,0 mm 9,5 km/h (2 Bft) W-SW 247 4,2 C 10,0 km/h (2 Bft)
29.03.2015 12:15 11,5 C 15,0 C 61 % 1013,2 hPa 0,0 mm 10,8 km/h (2 Bft) W-SW 247 4,2 C 14,8 km/h (3 Bft)
29.03.2015 12:20 11,7 C 14,8 C 61 % 1013,2 hPa 0,0 mm 11,1 km/h (2 Bft) W-NW 292 4,4 C 15,4 km/h (3 Bft)
29.03.2015 12:25 12,1 C 15,3 C 59 % 1013,4 hPa 0,0 mm 11,9 km/h (2 Bft) SW 225 4,3 C 20,9 km/h (4 Bft)
29.03.2015 12:30 12,2 C 15,8 C 59 % 1013,4 hPa 0,0 mm 12,1 km/h (2 Bft) W-SW 247 4,4 C 17,2 km/h (3 Bft)
29.03.2015 12:35 12,3 C 16,1 C 59 % 1013,4 hPa 0,0 mm 11,9 km/h (2 Bft) SW 225 4,5 C 17,5 km/h (3 Bft)
29.03.2015 12:40 12,4 C 16,5 C 58 % 1013,4 hPa 0,0 mm 11,3 km/h (2 Bft) W-SW 247 4,4 C 16,6 km/h (3 Bft)
29.03.2015 12:45 12,3 C 15,8 C 58 % 1013,2 hPa 0,0 mm 12,6 km/h (3 Bft) W-NW 292 4,3 C 29,9 km/h (5 Bft)
29.03.2015 12:50 11,7 C 14,4 C 58 % 1013,2 hPa 0,0 mm 13,2 km/h (3 Bft) NW 315 3,7 C 16,9 km/h (3 Bft)
29.03.2015 12:55 11,8 C 13,4 C 58 % 1013,2 hPa 0,0 mm 12,7 km/h (3 Bft) NW 315 3,8 C 11,7 km/h (2 Bft)
29.03.2015 13:00 12,2 C 14,1 C 58 % 1013,2 hPa 0,0 mm 11,4 km/h (2 Bft) W 270 4,2 C 9,2 km/h (2 Bft)
29.03.2015 13:05 13,0 C 15,5 C 57 % 1012,8 hPa 0,0 mm 9,8 km/h (2 Bft) W 270 4,7 C 11,1 km/h (2 Bft)
29.03.2015 13:10 13,2 C 16,9 C 56 % 1012,8 hPa 0,0 mm 8,2 km/h (2 Bft) NW 315 4,6 C 7,9 km/h (2 Bft)
29.03.2015 13:15 13,2 C 17,0 C 54 % 1012,8 hPa 0,0 mm 9,5 km/h (2 Bft) W-NW 292 4,1 C 9,3 km/h (2 Bft)
29.03.2015 13:20 13,7 C 17,0 C 54 % 1012,8 hPa 0,0 mm 9,8 km/h (2 Bft) W 270 4,6 C 14,2 km/h (3 Bft)
29.03.2015 13:25 13,7 C 17,0 C 51 % 1012,4 hPa 0,0 mm 9,8 km/h (2 Bft) W-SW 247 3,8 C 16,7 km/h (3 Bft)
29.03.2015 13:30 13,6 C 16,8 C 51 % 1012,4 hPa 0,0 mm 10,5 km/h (2 Bft) W 270 3,7 C 13,2 km/h (3 Bft)
29.03.2015 13:35 13,5 C 16,6 C 50 % 1012,4 hPa 0,0 mm 10,3 km/h (2 Bft) W-NW 292 3,3 C 11,3 km/h (2 Bft)
29.03.2015 13:40 13,1 C 15,9 C 50 % 1012,4 hPa 0,0 mm 10,5 km/h (2 Bft) W-SW 247 2,9 C 9,2 km/h (2 Bft)
29.03.2015 13:45 12,8 C 14,8 C 51 % 1011,6 hPa 0,0 mm 11,9 km/h (2 Bft) W 270 2,9 C 20,0 km/h (4 Bft)
29.03.2015 13:50 12,5 C 14,1 C 51 % 1011,6 hPa 0,0 mm 12,6 km/h (3 Bft) W-SW 247 2,6 C 15,8 km/h (3 Bft)
29.03.2015 13:55 12,3 C 13,4 C 51 % 1011,6 hPa 0,0 mm 13,5 km/h (3 Bft) SW 225 2,5 C 35,2 km/h (5 Bft)
29.03.2015 14:00 12,3 C 13,1 C 51 % 1011,6 hPa 0,0 mm 12,6 km/h (3 Bft) NW 315 2,5 C 24,6 km/h (4 Bft)
29.03.2015 14:05 12,8 C 14,0 C 50 % 1010,9 hPa 0,0 mm 10,9 km/h (2 Bft) W-SW 247 2,6 C 17,4 km/h (3 Bft)
29.03.2015 14:10 13,0 C 14,5 C 49 % 1010,9 hPa 0,0 mm 11,1 km/h (2 Bft) W-NW 292 2,5 C 12,7 km/h (3 Bft)
29.03.2015 14:15 12,5 C 14,4 C 49 % 1010,9 hPa 0,0 mm 11,6 km/h (2 Bft) W-SW 247 2,1 C 12,9 km/h (3 Bft)
29.03.2015 14:20 12,3 C 13,8 C 49 % 1010,9 hPa 0,0 mm 11,7 km/h (2 Bft) W 270 1,9 C 18,5 km/h (3 Bft)
29.03.2015 14:25 12,8 C 14,3 C 51 % 1010,4 hPa 0,0 mm 12,4 km/h (3 Bft) SW 225 2,9 C 14,3 km/h (3 Bft)
29.03.2015 14:30 13,0 C 14,8 C 50 % 1010,4 hPa 0,0 mm 12,2 km/h (2 Bft) W-NW 292 2,8 C 25,6 km/h (4 Bft)
29.03.2015 14:35 12,9 C 15,2 C 52 % 1010,4 hPa 0,0 mm 11,4 km/h (2 Bft) W-SW 247 3,3 C 11,9 km/h (2 Bft)
29.03.2015 14:40 12,7 C 14,9 C 52 % 1010,4 hPa 0,0 mm 12,7 km/h (3 Bft) NW 315 3,1 C 9,3 km/h (2 Bft)
29.03.2015 14:45 12,5 C 14,7 C 53 % 1010,3 hPa 0,0 mm 11,9 km/h (2 Bft) W-SW 247 3,2 C 14,8 km/h (3 Bft)
29.03.2015 14:50 12,4 C 14,4 C 53 % 1010,3 hPa 0,0 mm 10,1 km/h (2 Bft) W 270 3,1 C 12,4 km/h (3 Bft)
29.03.2015 14:55 12,3 C 14,1 C 54 % 1010,3 hPa 0,0 mm 9,0 km/h (2 Bft) W-SW 247 3,3 C 3,9 km/h (1 Bft)
29.03.2015 15:00 12,2 C 13,8 C 54 % 1010,3 hPa 0,0 mm 9,7 km/h (2 Bft) W-SW 247 3,2 C 17,1 km/h (3 Bft)
29.03.2015 15:05 11,9 C 13,2 C 55 % 1010,2 hPa 0,0 mm 10,0 km/h (2 Bft) W-SW 247 3,2 C 5,8 km/h (2 Bft)
29.03.2015 15:10 11,7 C 12,7 C 55 % 1010,2 hPa 0,0 mm 10,3 km/h (2 Bft) W 270 3,0 C 22,9 km/h (4 Bft)
29.03.2015 15:15 11,3 C 12,1 C 56 % 1010,2 hPa 0,0 mm 9,7 km/h (2 Bft) W-SW 247 2,8 C 21,7 km/h (4 Bft)
29.03.2015 15:20 10,9 C 11,5 C 57 % 1010,2 hPa 0,0 mm 10,9 km/h (2 Bft) W-SW 247 2,7 C 16,3 km/h (3 Bft)
29.03.2015 15:25 10,5 C 10,8 C 58 % 1010,1 hPa 0,0 mm 11,9 km/h (2 Bft) W 270 2,6 C 9,5 km/h (2 Bft)
29.03.2015 15:30 10,3 C 10,5 C 58 % 1010,1 hPa 0,0 mm 11,6 km/h (2 Bft) W-SW 247 2,4 C 14,2 km/h (3 Bft)
29.03.2015 15:35 10,3 C 10,6 C 59 % 1010,1 hPa 0,0 mm 9,8 km/h (2 Bft) W-SW 247 2,6 C 19,0 km/h (3 Bft)
29.03.2015 15:40 10,3 C 10,6 C 59 % 1010,1 hPa 0,0 mm 9,0 km/h (2 Bft) S 180 2,6 C 8,9 km/h (2 Bft)
29.03.2015 15:45 10,0 C 10,4 C 62 % 1010,1 hPa 0,0 mm 9,2 km/h (2 Bft) SW 225 3,1 C 13,7 km/h (3 Bft)
29.03.2015 15:50 9,7 C 10,2 C 64 % 1010,1 hPa 0,0 mm 9,3 km/h (2 Bft) W-SW 247 3,2 C 20,6 km/h (4 Bft)
29.03.2015 15:55 9,5 C 9,9 C 65 % 1010,1 hPa 0,0 mm 9,7 km/h (2 Bft) S-SW 202 3,3 C 5,0 km/h (1 Bft)
29.03.2015 16:00 9,3 C 9,7 C 66 % 1010,1 hPa 0,0 mm 9,0 km/h (2 Bft) S-SW 202 3,3 C 14,0 km/h (3 Bft)
29.03.2015 16:05 9,1 C 9,5 C 67 % 1010,1 hPa 0,0 mm 8,5 km/h (2 Bft) W-NW 292 3,3 C 14,2 km/h (3 Bft)
29.03.2015 16:10 8,9 C 9,2 C 68 % 1010,1 hPa 0,0 mm 9,7 km/h (2 Bft) N-NO 22 3,3 C 7,6 km/h (2 Bft)
29.03.2015 16:15 8,8 C 9,0 C 69 % 1010,1 hPa 0,0 mm 9,7 km/h (2 Bft) W-NW 292 3,4 C 10,0 km/h (2 Bft)
29.03.2015 16:20 8,8 C 9,1 C 70 % 1010,1 hPa 0,0 mm 8,4 km/h (2 Bft) W-SW 247 3,6 C 14,5 km/h (3 Bft)
29.03.2015 16:25 8,6 C 8,8 C 70 % 1010,1 hPa 0,0 mm 8,9 km/h (2 Bft) W-SW 247 3,4 C 6,9 km/h (2 Bft)
29.03.2015 16:30 8,5 C 8,6 C 70 % 1010,1 hPa 0,0 mm 9,0 km/h (2 Bft) W-SW 247 3,3 C 10,1 km/h (2 Bft)
29.03.2015 16:35 8,3 C 8,1 C 71 % 1010,1 hPa 0,0 mm 10,0 km/h (2 Bft) W 270 3,4 C 11,1 km/h (2 Bft)
29.03.2015 16:40 8,1 C 7,8 C 71 % 1010,1 hPa 0,0 mm 11,6 km/h (2 Bft) NW 315 3,2 C 12,7 km/h (3 Bft)
29.03.2015 16:45 8,1 C 7,8 C 72 % 1009,8 hPa 0,0 mm 9,5 km/h (2 Bft) W 270 3,4 C 13,5 km/h (3 Bft)
29.03.2015 16:50 7,9 C 7,6 C 72 % 1009,8 hPa 0,0 mm 9,3 km/h (2 Bft) W-SW 247 3,2 C 14,3 km/h (3 Bft)
29.03.2015 16:55 7,7 C 7,3 C 73 % 1009,8 hPa 0,0 mm 10,3 km/h (2 Bft) W 270 3,2 C 10,0 km/h (2 Bft)
29.03.2015 17:00 7,7 C 7,0 C 73 % 1009,8 hPa 0,0 mm 9,5 km/h (2 Bft) W-NW 292 3,2 C 8,9 km/h (2 Bft)
29.03.2015 17:05 7,6 C 7,2 C 74 % 1009,6 hPa 0,0 mm 7,4 km/h (2 Bft) W-SW 247 3,3 C 8,7 km/h (2 Bft)
29.03.2015 17:10 7,6 C 7,1 C 74 % 1009,6 hPa 0,0 mm 7,1 km/h (2 Bft) W-NW 292 3,3 C 7,1 km/h (2 Bft)
29.03.2015 17:15 7,5 C 7,1 C 74 % 1009,6 hPa 0,0 mm 6,6 km/h (2 Bft) W-SW 247 3,2 C 11,9 km/h (2 Bft)
29.03.2015 17:20 7,5 C 7,2 C 75 % 1009,6 hPa 0,0 mm 6,3 km/h (2 Bft) W-SW 247 3,4 C 7,7 km/h (2 Bft)
29.03.2015 17:25 7,5 C 7,2 C 75 % 1009,5 hPa 0,0 mm 6,0 km/h (2 Bft) W 270 3,4 C 6,6 km/h (2 Bft)
29.03.2015 17:30 7,5 C 7,2 C 75 % 1009,5 hPa 0,0 mm 5,5 km/h (1 Bft) W 270 3,4 C 7,1 km/h (2 Bft)
29.03.2015 17:35 7,4 C 7,2 C 76 % 1009,5 hPa 0,0 mm 5,1 km/h (1 Bft) W 270 3,5 C 5,0 km/h (1 Bft)
29.03.2015 17:40 7,5 C 7,2 C 76 % 1009,5 hPa 0,0 mm 4,8 km/h (1 Bft) NW 315 3,5 C 3,5 km/h (1 Bft)
29.03.2015 17:45 7,5 C 7,2 C 76 % 1009,2 hPa 0,0 mm 4,5 km/h (1 Bft) W-SW 247 3,5 C 5,0 km/h (1 Bft)
29.03.2015 17:50 7,5 C 7,2 C 76 % 1009,2 hPa 0,0 mm 4,7 km/h (1 Bft) W-SW 247 3,5 C 9,7 km/h (2 Bft)
29.03.2015 17:55 7,6 C 7,2 C 76 % 1009,2 hPa 0,0 mm 5,8 km/h (2 Bft) W 270 3,6 C 9,5 km/h (2 Bft)
29.03.2015 18:00 7,7 C 7,1 C 77 % 1009,2 hPa 0,0 mm 6,9 km/h (2 Bft) SO 135 3,9 C 12,9 km/h (3 Bft)
29.03.2015 18:05 7,7 C 7,0 C 76 % 1008,9 hPa 0,0 mm 6,9 km/h (2 Bft) W-SW 247 3,7 C 14,5 km/h (3 Bft)
29.03.2015 18:10 7,7 C 7,0 C 76 % 1008,9 hPa 0,0 mm 7,2 km/h (2 Bft) W 270 3,7 C 16,3 km/h (3 Bft)
29.03.2015 18:15 7,7 C 7,0 C 75 % 1008,9 hPa 0,0 mm 7,4 km/h (2 Bft) W 270 3,6 C 8,7 km/h (2 Bft)
29.03.2015 18:20 7,7 C 7,1 C 75 % 1008,9 hPa 0,0 mm 7,9 km/h (2 Bft) W-SW 247 3,6 C 10,9 km/h (2 Bft)
29.03.2015 18:25 7,7 C 7,1 C 74 % 1008,9 hPa 0,0 mm 7,9 km/h (2 Bft) W-NW 292 3,4 C 7,6 km/h (2 Bft)
29.03.2015 18:30 7,7 C 7,1 C 74 % 1008,9 hPa 0,0 mm 8,2 km/h (2 Bft) W 270 3,4 C 10,8 km/h (2 Bft)
29.03.2015 18:35 7,9 C 7,1 C 72 % 1008,9 hPa 0,0 mm 10,3 km/h (2 Bft) SW 225 3,2 C 17,5 km/h (3 Bft)
29.03.2015 18:40 7,9 C 7,3 C 72 % 1008,9 hPa 0,0 mm 10,6 km/h (2 Bft) W-SW 247 3,2 C 9,0 km/h (2 Bft)
29.03.2015 18:45 8,0 C 7,5 C 71 % 1008,2 hPa 0,0 mm 9,3 km/h (2 Bft) SW 225 3,1 C 8,0 km/h (2 Bft)
29.03.2015 18:50 8,1 C 7,6 C 70 % 1008,2 hPa 0,0 mm 9,0 km/h (2 Bft) W 270 3,0 C 7,1 km/h (2 Bft)
29.03.2015 18:55 8,2 C 7,7 C 70 % 1008,2 hPa 0,0 mm 8,4 km/h (2 Bft) W-SW 247 3,1 C 9,8 km/h (2 Bft)
29.03.2015 19:00 8,2 C 7,7 C 70 % 1008,2 hPa 0,0 mm 8,0 km/h (2 Bft) W 270 3,1 C 7,7 km/h (2 Bft)
29.03.2015 19:05 8,3 C 7,9 C 69 % 1008,5 hPa 0,0 mm 8,2 km/h (2 Bft) S-SW 202 3,0 C 15,6 km/h (3 Bft)
29.03.2015 19:10 8,4 C 8,0 C 69 % 1008,5 hPa 0,0 mm 8,4 km/h (2 Bft) W 270 3,0 C 12,2 km/h (2 Bft)
29.03.2015 19:15 8,5 C 8,1 C 68 % 1008,5 hPa 0,0 mm 9,2 km/h (2 Bft) SW 225 2,9 C 10,1 km/h (2 Bft)
29.03.2015 19:20 8,6 C 8,2 C 68 % 1008,5 hPa 0,0 mm 8,7 km/h (2 Bft) W 270 3,0 C 16,6 km/h (3 Bft)
29.03.2015 19:25 8,6 C 8,0 C 67 % 1007,9 hPa 0,0 mm 9,0 km/h (2 Bft) W 270 2,8 C 7,7 km/h (2 Bft)
29.03.2015 19:30 8,5 C 8,1 C 67 % 1007,9 hPa 0,0 mm 8,5 km/h (2 Bft) W-SW 247 2,7 C 10,1 km/h (2 Bft)
29.03.2015 19:35 8,6 C 8,2 C 67 % 1007,9 hPa 0,0 mm 7,4 km/h (2 Bft) W-SW 247 2,8 C 6,9 km/h (2 Bft)
29.03.2015 19:40 8,6 C 8,2 C 67 % 1007,9 hPa 0,0 mm 7,6 km/h (2 Bft) W-SW 247 2,8 C 9,3 km/h (2 Bft)
29.03.2015 19:45 8,8 C 8,4 C 66 % 1007,2 hPa 0,0 mm 7,4 km/h (2 Bft) W 270 2,8 C 12,9 km/h (3 Bft)
29.03.2015 19:50 8,9 C 8,4 C 66 % 1007,2 hPa 0,0 mm 8,0 km/h (2 Bft) W-NW 292 2,9 C 10,5 km/h (2 Bft)
29.03.2015 19:55 9,0 C 8,7 C 65 % 1007,2 hPa 0,0 mm 8,0 km/h (2 Bft) SW 225 2,8 C 17,2 km/h (3 Bft)
29.03.2015 20:00 9,2 C 8,8 C 65 % 1007,2 hPa 0,0 mm 7,2 km/h (2 Bft) W 270 3,0 C 3,5 km/h (1 Bft)
29.03.2015 20:05 9,4 C 9,0 C 64 % 1006,9 hPa 0,0 mm 7,9 km/h (2 Bft) W-SW 247 2,9 C 9,3 km/h (2 Bft)
29.03.2015 20:10 9,4 C 9,0 C 64 % 1006,9 hPa 0,0 mm 8,2 km/h (2 Bft) NW 315 2,9 C 17,7 km/h (3 Bft)
29.03.2015 20:15 9,7 C 9,2 C 63 % 1006,9 hPa 0,0 mm 10,6 km/h (2 Bft) NW 315 3,0 C 15,8 km/h (3 Bft)
29.03.2015 20:20 9,8 C 9,4 C 62 % 1006,9 hPa 0,0 mm 12,1 km/h (2 Bft) W 270 2,9 C 11,7 km/h (2 Bft)
29.03.2015 20:25 9,8 C 9,4 C 62 % 1006,9 hPa 0,0 mm 11,6 km/h (2 Bft) SW 225 2,9 C 23,0 km/h (4 Bft)
29.03.2015 20:30 9,7 C 9,2 C 62 % 1006,9 hPa 0,0 mm 10,9 km/h (2 Bft) W-NW 292 2,8 C 16,7 km/h (3 Bft)
29.03.2015 20:35 9,8 C 9,4 C 62 % 1006,9 hPa 0,0 mm 11,9 km/h (2 Bft) W 270 2,9 C 14,3 km/h (3 Bft)
29.03.2015 20:40 9,9 C 9,5 C 62 % 1006,9 hPa 0,0 mm 11,9 km/h (2 Bft) W-SW 247 3,0 C 16,4 km/h (3 Bft)
29.03.2015 20:45 9,8 C 9,4 C 62 % 1006,9 hPa 0,0 mm 10,9 km/h (2 Bft) W 270 2,9 C 17,2 km/h (3 Bft)
29.03.2015 20:50 9,9 C 9,3 C 62 % 1006,9 hPa 0,0 mm 12,1 km/h (2 Bft) W-SW 247 3,0 C 27,8 km/h (4 Bft)
29.03.2015 20:55 9,8 C 9,4 C 62 % 1006,9 hPa 0,0 mm 12,7 km/h (3 Bft) NW 315 2,9 C 9,7 km/h (2 Bft)
29.03.2015 21:00 9,8 C 9,4 C 62 % 1006,9 hPa 0,0 mm 10,6 km/h (2 Bft) W-SW 247 2,9 C 10,1 km/h (2 Bft)
29.03.2015 21:05 9,8 C 9,3 C 62 % 1006,6 hPa 0,0 mm 10,5 km/h (2 Bft) W-NW 292 2,9 C 22,7 km/h (4 Bft)
29.03.2015 21:10 9,8 C 9,4 C 62 % 1006,6 hPa 0,0 mm 11,1 km/h (2 Bft) W-SW 247 2,9 C 9,7 km/h (2 Bft)
29.03.2015 21:15 9,4 C 9,0 C 64 % 1006,6 hPa 0,0 mm 10,8 km/h (2 Bft) N-NW 337 2,9 C 11,4 km/h (2 Bft)
29.03.2015 21:20 9,4 C 8,9 C 64 % 1006,6 hPa 0,0 mm 10,5 km/h (2 Bft) W 270 2,9 C 10,8 km/h (2 Bft)
29.03.2015 21:25 9,3 C 8,6 C 65 % 1006,7 hPa 0,0 mm 10,0 km/h (2 Bft) W 270 3,1 C 16,9 km/h (3 Bft)
29.03.2015 21:30 9,3 C 8,8 C 66 % 1006,7 hPa 0,0 mm 9,8 km/h (2 Bft) W 270 3,3 C 12,2 km/h (2 Bft)
29.03.2015 21:35 9,1 C 8,5 C 67 % 1006,7 hPa 0,0 mm 11,1 km/h (2 Bft) W-SW 247 3,3 C 12,6 km/h (3 Bft)
29.03.2015 21:40 8,9 C 8,2 C 69 % 1006,7 hPa 0,0 mm 11,1 km/h (2 Bft) W-SW 247 3,5 C 13,8 km/h (3 Bft)
29.03.2015 21:45 8,7 C 7,8 C 70 % 1006,7 hPa 0,0 mm 9,3 km/h (2 Bft) W-SW 247 3,5 C 7,2 km/h (2 Bft)
29.03.2015 21:50 8,6 C 7,8 C 70 % 1006,7 hPa 0,0 mm 9,3 km/h (2 Bft) W-NW 292 3,4 C 12,1 km/h (2 Bft)
29.03.2015 21:55 8,6 C 7,8 C 70 % 1006,7 hPa 0,0 mm 8,9 km/h (2 Bft) W 270 3,4 C 14,8 km/h (3 Bft)
29.03.2015 22:00 8,5 C 7,7 C 70 % 1006,7 hPa 0,0 mm 9,5 km/h (2 Bft) W-SW 247 3,3 C 11,4 km/h (2 Bft)
29.03.2015 22:05 8,4 C 7,6 C 71 % 1006,3 hPa 0,0 mm 9,5 km/h (2 Bft) W-NW 292 3,5 C 13,8 km/h (3 Bft)
29.03.2015 22:10 8,3 C 7,3 C 71 % 1006,3 hPa 0,0 mm 9,0 km/h (2 Bft) W-SW 247 3,4 C 6,9 km/h (2 Bft)
29.03.2015 22:15 8,2 C 7,4 C 72 % 1006,3 hPa 0,0 mm 9,0 km/h (2 Bft) W 270 3,5 C 10,8 km/h (2 Bft)
29.03.2015 22:20 8,2 C 7,4 C 72 % 1006,3 hPa 0,0 mm 8,5 km/h (2 Bft) W-SW 247 3,5 C 9,0 km/h (2 Bft)
29.03.2015 22:25 8,2 C 7,4 C 72 % 1006,1 hPa 0,0 mm 9,0 km/h (2 Bft) W 270 3,5 C 16,7 km/h (3 Bft)
29.03.2015 22:30 8,1 C 7,3 C 72 % 1006,1 hPa 0,0 mm 9,2 km/h (2 Bft) W-SW 247 3,4 C 14,3 km/h (3 Bft)
29.03.2015 22:35 8,1 C 7,3 C 72 % 1006,1 hPa 0,0 mm 8,9 km/h (2 Bft) W-SW 247 3,4 C 7,1 km/h (2 Bft)
29.03.2015 22:40 7,9 C 7,2 C 73 % 1006,1 hPa 0,0 mm 9,2 km/h (2 Bft) N 360 3,4 C 11,7 km/h (2 Bft)
29.03.2015 22:45 7,9 C 7,0 C 74 % 1006,1 hPa 0,0 mm 8,4 km/h (2 Bft) W 270 3,6 C 17,2 km/h (3 Bft)
29.03.2015 22:50 7,8 C 7,0 C 74 % 1006,1 hPa 0,0 mm 7,4 km/h (2 Bft) W 270 3,5 C 9,3 km/h (2 Bft)
29.03.2015 22:55 7,8 C 7,1 C 74 % 1006,1 hPa 0,0 mm 8,2 km/h (2 Bft) W 270 3,5 C 16,1 km/h (3 Bft)
29.03.2015 23:00 7,8 C 6,9 C 74 % 1006,1 hPa 0,0 mm 8,2 km/h (2 Bft) W-SW 247 3,5 C 8,4 km/h (2 Bft)
29.03.2015 23:05 7,7 C 7,0 C 75 % 1005,9 hPa 0,0 mm 8,9 km/h (2 Bft) SW 225 3,6 C 10,0 km/h (2 Bft)
29.03.2015 23:10 7,6 C 6,9 C 75 % 1005,9 hPa 0,0 mm 9,2 km/h (2 Bft) W 270 3,5 C 12,6 km/h (3 Bft)
29.03.2015 23:15 7,5 C 6,8 C 75 % 1005,9 hPa 0,0 mm 9,0 km/h (2 Bft) W-SW 247 3,4 C 8,7 km/h (2 Bft)
29.03.2015 23:20 7,4 C 6,5 C 76 % 1005,9 hPa 0,7 mm 8,4 km/h (2 Bft) W 270 3,5 C 9,8 km/h (2 Bft)
29.03.2015 23:25 7,2 C 6,5 C 77 % 1005,9 hPa 0,0 mm 7,9 km/h (2 Bft) W 270 3,4 C 7,2 km/h (2 Bft)
29.03.2015 23:30 7,2 C 6,3 C 77 % 1005,9 hPa 0,0 mm 7,4 km/h (2 Bft) W-SW 247 3,4 C 4,2 km/h (1 Bft)
29.03.2015 23:35 7,1 C 6,3 C 78 % 1005,9 hPa 0,0 mm 7,2 km/h (2 Bft) W-SW 247 3,5 C 8,4 km/h (2 Bft)
29.03.2015 23:40 7,1 C 6,3 C 78 % 1005,9 hPa 0,0 mm 7,2 km/h (2 Bft) W-SW 247 3,5 C 7,4 km/h (2 Bft)
29.03.2015 23:45 7,0 C 6,2 C 79 % 1005,6 hPa 0,0 mm 6,6 km/h (2 Bft) W-SW 247 3,6 C 7,9 km/h (2 Bft)
29.03.2015 23:50 6,9 C 6,2 C 79 % 1005,6 hPa 0,0 mm 6,4 km/h (2 Bft) W-SW 247 3,5 C 11,6 km/h (2 Bft)
29.03.2015 23:55 6,9 C 6,1 C 79 % 1005,6 hPa 0,0 mm 6,6 km/h (2 Bft) W-SW 247 3,5 C 10,9 km/h (2 Bft)
_ Min-Zeit 05:45 05:55 14:20 23:55 - 00:00 - - 14:20 05:55
Minimum _ 5,3 C 4,9 C 49 % 1005,6 hPa - 2,4 km/h (1 Bft) - - 1,9 C 2,1 km/h (1 Bft)
_ Max-Zeit 13:25 13:25 05:50 00:00 23:20 13:55 - - 13:05 13:55
Maximum _ 13,7 C 17,0 C 81 % 1017,1 hPa 0,7 mm 13,5 km/h
SW (3 Bft)
- - 4,7 C 35,2 km/h
SW (5 Bft)
Durchschnitt _ 8,4 C 8,6 C 69 % 1012,0 hPa #1,4 mm 7,7 km/h (2 Bft) W-SW - 3,0 C 10,3 km/h (2 Bft)